DW1183 Weather Reports


Display with metric or nautical units.
time (UTC)temp
F
wind
direction
speed
MPH
gust
MPH
rain 1hr
in
rain 24hr
in
rain mn
in
humidity
%
barometer
mb
20260831010048 87 173 4.0 8.0 0.00 0.00 0.00 76 1014.7
20260831004528 88 171 4.0 8.0 0.00 0.00 0.00 74 1014.8
20260831003032 88 172 3.0 7.0 0.00 0.00 0.00 73 1014.7
20260831001527 89 155 3.0 8.0 0.00 0.00 0.00 71 1014.7
20260831000027 90 191 2.0 7.0 0.00 0.00 0.00 66 1014.8
20260830234527 90 156 3.0 8.0 0.00 0.00 0.00 67 1014.7
20260830233035 91 180 3.0 9.0 0.00 0.00 0.00 68 1014.6
20260830231526 91 167 5.0 11.0 0.00 0.00 0.00 67 1014.6
20260830230025 92 136 4.0 9.0 0.00 0.00 0.00 66 1014.6
20260830224524 92 135 4.0 10.0 0.00 0.00 0.00 65 1014.7
20260830223023 93 163 4.0 9.0 0.00 0.00 0.00 65 1014.6
20260830221522 94 141 2.0 7.0 0.00 0.00 0.00 66 1014.6
20260830220022 94 100 2.0 9.0 0.00 0.00 0.00 66 1014.6
20260830214522 94 143 2.0 7.0 0.00 0.00 0.00 66 1014.6
20260830213025 93 149 5.0 11.0 0.00 0.00 0.00 67 1014.7
20260830211518 94 187 2.0 8.0 0.00 0.00 0.00 68 1014.8
20260830210014 94 145 3.0 7.0 0.00 0.00 0.00 68 1015.0
20260830204517 94 34 2.0 8.0 0.00 0.00 0.00 68 1015.2
20260830203012 95 196 1.0 4.0 0.00 0.00 0.00 67 1015.3
20260830201502 94 161 2.0 6.0 0.00 0.00 0.00 67 1015.6
20260830200058 95 323 1.0 5.0 0.00 0.00 0.00 65 1015.7
20260830194553 94 135 1.0 5.0 0.00 0.00 0.00 67 1016.0
20260830193050 94 309 2.0 8.0 0.00 0.00 0.00 70 1016.1
20260830191544 94 335 2.0 5.0 0.00 0.00 0.00 69 1016.2
20260830190040 93 205 1.0 6.0 0.00 0.00 0.00 71 1016.6
20260830184540 93 288 2.0 5.0 0.00 0.00 0.00 71 1016.8
20260830183031 93 150 2.0 6.0 0.00 0.00 0.00 71 1017.1
20260830181527 93 154 1.0 6.0 0.00 0.00 0.00 71 1017.1
20260830180022 93 111 2.0 4.0 0.00 0.00 0.00 71 1017.5
20260830174519 91 150 0.0 3.0 0.00 0.00 0.00 71 1017.6
20260830173014 92 146 3.0 10.0 0.00 0.00 0.00 67 1017.8
20260830171511 91 153 0.0 3.0 0.00 0.00 0.00 68 1017.9
20260830170007 90 234 3.0 7.0 0.00 0.00 0.00 69 1017.8
20260830164504 90 240 1.0 4.0 0.00 0.00 0.00 71 1017.9
20260830163002 90 239 1.0 3.0 0.00 0.00 0.00 73 1018.0
20260830161619 88 239 2.0 4.0 0.00 0.00 0.00 75 1018.1
20260830160054 88 240 1.0 5.0 0.00 0.00 0.00 76 1018.1
20260830154550 87 223 1.0 6.0 0.00 0.00 0.00 77 1018.0
20260830153048 87 274 2.0 3.0 0.00 0.00 0.00 78 1018.1
20260830151543 86 183 1.0 2.0 0.00 0.00 0.00 80 1018.2
20260830150108 85 183 1.0 4.0 0.00 0.00 0.00 82 1018.2
20260830144535 84 180 1.0 3.0 0.00 0.00 0.00 84 1018.2
20260830143037 83 179 0.0 3.0 0.00 0.00 0.00 86 1018.2
20260830141527 82 176 0.0 4.0 0.00 0.00 0.00 89 1018.3
20260830140021 81 176 0.0 1.0 0.00 0.00 0.00 91 1018.0
20260830134532 81 176 0.0 2.0 0.00 0.00 0.00 91 1018.0
20260830133016 80 176 1.0 2.0 0.00 0.00 0.00 92 1017.8
20260830131516 80 176 0.0 1.0 0.00 0.00 0.00 92 1017.6
20260830130012 80 176 0.0 1.0 0.00 0.00 0.00 92 1017.4
20260830124512 80 176 0.0 2.0 0.00 0.00 0.00 92 1017.4
20260830123008 80 176 0.0 1.0 0.00 0.00 0.00 92 1017.2
20260830121505 80 176 0.0 1.0 0.00 0.00 0.00 92 1017.1
20260830120001 80 176 0.0 1.0 0.00 0.00 0.00 91 1017.1
20260830114612 80 176 0.0 1.0 0.00 0.00 0.00 91 1017.1
20260830113100 80 176 0.0 1.0 0.00 0.00 0.00 91 1017.1
20260830111554 80 176 0.0 1.0 0.00 0.00 0.00 91 1017.0
20260830110053 80 176 0.0 0.0 0.00 0.00 0.00 91 1016.9
20260830104552 80 176 0.0 1.0 0.00 0.00 0.00 91 1016.8
20260830103052 80 176 0.0 0.0 0.00 0.00 0.00 91 1016.8
20260830101552 81 176 0.0 0.0 0.00 0.00 0.00 90 1016.8
20260830100050 81 176 0.0 1.0 0.00 0.00 0.00 90 1016.7
20260830094549 81 176 0.0 0.0 0.00 0.00 0.00 90 1016.6
20260830093052 81 176 0.0 0.0 0.00 0.00 0.00 90 1016.6
20260830091550 81 176 0.0 1.0 0.00 0.00 0.00 89 1016.7
20260830090058 81 176 0.0 2.0 0.00 0.00 0.00 89 1016.5
20260830084553 81 176 0.0 1.0 0.00 0.00 0.00 90 1016.6
20260830083047 81 176 0.0 1.0 0.00 0.00 0.00 89 1016.6
20260830081545 81 176 1.0 3.0 0.00 0.00 0.00 89 1016.6
20260830080044 81 176 0.0 3.0 0.00 0.00 0.00 89 1016.8
20260830074551 81 176 1.0 4.0 0.00 0.00 0.00 89 1016.7
20260830073042 81 176 1.0 2.0 0.00 0.00 0.00 89 1016.8
20260830071542 81 176 0.0 2.0 0.00 0.00 0.00 89 1016.9
20260830070040 82 176 1.0 4.0 0.00 0.00 0.00 89 1016.8
20260830064540 82 176 2.0 4.0 0.00 0.00 0.00 89 1016.7
20260830063039 82 176 1.0 4.0 0.00 0.00 0.00 89 1016.8
20260830061537 82 176 2.0 4.0 0.00 0.00 0.00 88 1016.8
20260830060037 82 176 1.0 5.0 0.00 0.00 0.00 88 1016.7
20260830054536 82 176 2.0 4.0 0.00 0.00 0.00 88 1016.8
20260830053032 83 177 2.0 4.0 0.00 0.00 0.00 88 1016.8
20260830051532 83 177 3.0 7.0 0.00 0.00 0.00 87 1016.7
20260830050030 83 178 2.0 6.0 0.00 0.00 0.00 86 1016.8
20260830044533 83 178 3.0 5.0 0.00 0.00 0.00 86 1016.9
20260830043028 83 180 2.0 6.0 0.00 0.00 0.00 86 1016.9
20260830041536 83 180 3.0 6.0 0.00 0.00 0.00 87 1016.9
20260830040027 83 184 3.0 7.0 0.00 0.00 0.00 87 1016.9
20260830034537 84 171 3.0 5.0 0.00 0.00 0.00 87 1016.8
20260830033026 84 171 3.0 6.0 0.00 0.00 0.00 87 1016.9
20260830031525 84 167 2.0 6.0 0.00 0.00 0.00 87 1016.7
20260830030025 84 167 3.0 7.0 0.00 0.00 0.00 86 1016.6
20260830024525 84 171 2.0 5.0 0.00 0.00 0.00 86 1016.6
20260830023025 84 173 1.0 5.0 0.00 0.00 0.00 85 1016.4
20260830021531 85 175 1.0 6.0 0.00 0.00 0.00 85 1016.2
20260830020022 85 175 2.0 6.0 0.00 0.00 0.00 83 1016.0
20260830014533 85 173 2.0 5.0 0.00 0.00 0.00 84 1015.9
20260830013036 86 175 3.0 6.0 0.00 0.00 0.00 82 1015.8
20260830011522 86 178 3.0 7.0 0.00 0.00 0.00 81 1015.7